Location: Englebelmer
(50.0595°N, 2.6094°E)
Time: 06:07:34
(UTC+00:00)

Daily predictions for brighter satellites

Satellite Brightness Start Highest point End
(mag) Time Altitude Azimuth Time Altitude Azimuth Time Altitude Azimuth
BREEZE-M DEB (TANK) 4.4 16:07:05 10° WNW 16:11:02 74° N 16:27:24 10° E
Cosmos 2221 2.9 16:24:27 10° SSE 16:28:36 46° E 16:32:45 10° NNE
SL-08 R/B 4.1 16:25:11 10° N 16:30:02 57° WNW 16:34:47 10° SSW
H-2A R/B 2.7 16:27:48 10° SSE 16:31:37 85° ENE 16:35:30 10° NNW
Abrixas rocket 3.4 16:29:34 10° W 16:32:07 33° SSW 16:34:40 10° SE
Cosmos 1500 Rocket 3.7 16:27:56 10° N 16:32:13 51° ENE 16:36:31 10° SSE
Cosmos 1570 Rocket 4.1 16:27:17 10° SSW 16:32:33 69° ESE 16:37:49 10° NNE
YAOGAN 6 2.7 16:32:53 10° SSE 16:36:28 54° ENE 16:40:02 10° N
NOSS 2-1 (C) 4.3 16:33:11 10° NW 16:38:03 86° SW 16:44:57 10° SE
CZ-4C R/B 3.3 16:34:39 10° NNE 16:38:13 51° E 16:41:45 10° S
Cosmos 2333 4.4 16:33:02 10° SW 16:38:43 77° WNW 16:44:23 10° NNE
Cosmos 405 Rocket 2.8 16:36:38 10° N 16:40:28 55° ENE 16:44:21 10° SSE
ADEOS Rocket 3.6 16:35:31 10° NNE 16:43:10 77° ESE 16:50:58 10° S
NOSS 2-1 (D) 4.4 16:38:38 10° NW 16:43:31 80° SW 16:50:28 10° SE
Cosmos 372 Rocket 4.4 16:39:30 10° NNW 16:44:38 70° WSW 16:49:46 10° SSE
Cosmos 1943 Rocket 3.4 16:41:13 10° N 16:45:22 21° NE 16:49:31 10° E
Cosmos 405 2.9 16:43:16 10° S 16:46:44 72° E 16:50:14 10° NNE
YAOGAN 1 4.3 16:45:18 10° E 16:47:09 13° NE 16:48:59 10° NNE
Cosmos 1763 Rocket 4.4 16:42:32 10° SW 16:47:25 47° WNW 16:52:20 10° NNE
Cosmos 389 Rocket 4.1 16:45:27 10° SE 16:47:34 16° E 16:49:22 11° NE
Cosmos 44 4.3 16:44:00 10° NNW 16:48:37 31° NE 16:53:23 10° E
BREEZE-M DEB (TANK) 3.0 16:49:15 10° SW 16:51:20 29° SSE 16:53:02 12° E
H-2A R/B 2.6 16:47:23 10° SSE 16:51:44 84° WSW 16:55:57 10° NNW
Cosmos 2322 Rocket 3.9 16:47:10 10° W 16:51:56 27° NW 16:56:44 10° NNE
USA 215 4.1 16:47:54 10° ENE 16:53:49 35° SE 16:59:41 10° SSW
SL-16 R/B 3.7 16:51:18 10° SE 16:54:30 16° E 16:56:52 12° ENE
Cosmos 1743 Rocket 3.6 16:50:05 10° N 16:54:36 86° ENE 16:59:04 10° S
COSMO-SKYMED 1 4.1 16:52:06 10° NE 16:54:57 17° E 16:57:48 10° SE
Cosmos 2298 Rocket 4.1 16:50:56 10° NNW 16:56:17 87° WSW 17:01:36 10° SSE
NOAA 6 4.3 16:51:12 10° S 16:56:22 76° WSW 17:01:32 10° NNW
CZ-2C R/B 4.2 16:53:37 10° ESE 16:57:14 20° ENE 17:00:44 10° NNE
Cosmos 2150 Rocket 4.0 16:52:29 10° NNW 16:57:42 89° ENE 17:02:50 10° SSE
Okean-O 4.0 16:55:26 10° ESE 16:58:28 18° ENE 17:01:30 10° NNE
Cosmos 1818 3.6 16:53:34 10° NW 16:59:05 88° SW 17:04:33 10° SE
PAYLOAD B 4.5 16:53:40 10° SSE 16:59:16 79° WSW 17:04:53 10° NNW
Cosmos 1900 4.4 16:56:20 10° SSW 17:01:25 74° SE 17:06:28 11° NE
AQUARIUS 4.1 16:57:57 10° SSE 17:02:25 69° ENE 17:06:54 10° N
Sich 1 3.4 16:59:28 10° N 17:03:42 43° ENE 17:07:52 10° SSE
Cosmos 1606 3.6 17:01:43 10° SSE 17:05:08 29° E 17:08:33 10° NNE
Cosmos 1842 Rocket 4.0 17:05:03 10° SSW 17:09:21 65° WNW 17:13:40 10° N
Okean O Rocket 1.5 17:05:04 10° SSE 17:09:24 82° ENE 17:13:49 10° NNW
Cosmos 2333 Rocket 2.7 17:03:55 10° SW 17:09:32 60° NW 17:15:10 10° NNE
Helios 1A Rocket 4.1 17:08:01 10° ESE 17:11:01 21° ENE 17:14:02 10° NNE
ISS -2.8 17:08:36 10° SW 17:11:41 35° SSE 17:13:33 19° E
Radarsat Rocket 4.5 17:06:10 10° S 17:12:08 70° WSW 17:18:47 10° NNW
Cosmos 1125 Rocket 3.4 17:07:15 10° NNW 17:12:29 86° ENE 17:17:43 10° SSE
Nadezhda 1 Rocket 4.0 17:06:25 10° S 17:12:43 77° E 17:19:09 10° NNE
Cosmos 1356 3.8 17:10:12 10° N 17:13:28 40° ENE 17:16:43 10° SE
Cosmos 1805 Rocket 3.5 17:10:12 10° N 17:14:42 72° ENE 17:19:08 10° SSE
COSMOS 2428 3.0 17:09:18 10° SW 17:15:01 69° WNW 17:20:46 10° NNE
Cosmos 2208 Rocket 4.4 17:12:06 10° SW 17:17:21 66° WNW 17:22:43 10° NNE
Feng Yun 1-1 Rocket 4.4 17:11:45 10° SE 17:17:24 55° ENE 17:22:54 10° N
CZ-4B R/B 1.8 17:17:16 21° NE 17:18:45 34° E 17:21:36 10° SSE
Cosmos 2278 Rocket 2.8 17:14:02 10° NW 17:19:40 63° WSW 17:25:15 10° SSE
Cosmos 1666 Rocket 3.9 17:16:39 10° N 17:20:50 42° ENE 17:25:03 10° SE
Cosmos 1151 Rocket 4.1 17:19:01 10° SE 17:22:27 24° E 17:23:24 22° ENE
Cosmos 2154 Rocket 4.2 17:17:36 10° NNW 17:23:56 77° W 17:30:16 10° S
CRYOSAT 2 4.3 17:19:38 10° N 17:24:33 84° E 17:29:28 10° S
Cosmos 1862 4.2 17:20:48 10° NNW 17:24:45 53° W 17:28:40 10° S
Cosmos 962 Rocket 4.4 17:20:15 10° N 17:26:36 73° E 17:32:48 10° SSE
IRS-1C Rocket 4.2 17:21:43 10° SE 17:26:47 50° ENE 17:31:54 10° N
USA 267 3.2 17:21:58 10° ESE 17:28:29 78° NNE 17:35:00 10° WNW
Lacrosse 5 rocket 3.4 17:28:01 10° SE 17:28:07 10° SE 17:28:07 10° SE
ERS-2 2.3 17:29:46 19° NNE 17:32:07 48° E 17:35:40 10° S
Cosmos 482 Debris 3.4 17:30:33 10° WNW 17:31:54 39° NW 17:31:54 39° NW
Cosmos 2360 Rocket 4.0 17:28:23 10° W 17:32:54 24° NW 17:37:26 10° NNE
Cosmos 2341 Rocket 3.9 17:26:38 10° N 17:32:56 73° E 17:39:14 10° SSE
Meteor 1-25 Rocket 4.3 17:28:09 10° N 17:33:37 52° ENE 17:39:07 10° SSE
NOSS 0 Rocket 3.9 17:28:40 10° SSW 17:34:56 90° WNW 17:40:49 12° NNE
CZ-2D R/B 3.5 17:32:44 10° SE 17:36:21 43° ENE 17:40:01 10° N
CZ-4 R/B 1.9 17:38:23 27° ESE 17:39:41 35° ENE 17:43:20 10° N
H-2A R/B 2.8 17:36:24 10° N 17:40:26 51° WNW 17:44:31 10° SW
Cosmos 2219 Rocket 3.3 17:35:18 10° WSW 17:40:38 42° NW 17:46:00 10° NNE
SMAP 4.3 17:38:50 10° S 17:43:17 45° W 17:47:47 10° NNW
BREEZE-M DEB (TANK) 3.3 17:41:29 10° SW 17:43:13 22° SSE 17:43:13 22° SSE
SKYMED 2 3.8 17:40:45 21° NNE 17:43:26 46° E 17:47:36 10° S
CZ-4B R/B 4.2 17:39:24 10° S 17:44:33 47° W 17:49:41 10° NNW
USA 81 4.0 17:39:22 10° N 17:44:38 60° E 17:49:50 10° SSE
CREW DRAGON DEMO-1 DEB 2.9 17:44:12 10° WNW 17:47:10 69° SSW 17:47:43 52° SE
Cosmos 2285 Rocket 4.0 17:41:29 10° NNW 17:47:53 64° ENE 17:54:12 10° SE
SL-16 R/B 4.5 17:46:44 10° NW 17:49:31 14° NNW 17:52:18 10° N
Cosmos 2237 Rocket 2.2 17:44:15 10° SSW 17:49:53 86° WNW 17:54:26 16° NNE
Cosmos 1633 Rocket 2.9 17:47:15 10° N 17:51:38 69° ENE 17:55:59 10° SSE
Cosmos 1939 Rocket 2.7 17:48:09 10° SSE 17:52:01 90° NE 17:55:57 10° NNW
H-2A R/B 2.4 17:52:26 23° ESE 17:55:14 40° ENE 18:00:04 10° N
Cosmos 864 Rocket 4.4 17:50:47 10° N 17:57:07 67° ENE 18:03:21 10° SSE
SL-8 Rocket 3.9 17:50:52 10° N 17:57:07 83° E 18:03:23 10° S
Cosmos 2369 Rocket 2.7 17:56:00 10° NNW 18:01:20 39° NE 18:02:10 37° ENE
CSL-04 Rocket 3.9 18:01:44 36° E 18:03:03 42° ENE 18:08:03 10° N
USA 281 3.1 17:56:36 10° SSE 18:03:09 82° ENE 18:09:46 10° NNW
MOS 1 Rocket 4.0 18:03:47 38° ENE 18:04:44 42° E 18:09:52 10° SSE
Cosmos 2181 Rocket 3.9 17:59:28 10° S 18:05:53 76° E 18:12:17 10° NNE
Cosmos 1959 Rocket 4.4 17:59:48 10° N 18:06:12 80° E 18:12:33 10° SSE
Cosmos 1980 4.1 18:02:31 10° SW 18:08:09 63° WNW 18:12:27 18° NNE
Cosmos 1821 Rocket 4.3 18:04:53 10° N 18:10:44 41° ENE 18:11:29 39° E
Cosmos 1241 Rocket 4.5 18:06:34 10° NW 18:13:14 79° NE 18:17:23 25° SE
Cosmos 389 Rocket 3.8 18:18:43 10° SW 18:21:57 38° WNW 18:23:14 27° NNW
YAOGAN 1 2.4 18:21:23 48° SSE 18:22:33 83° ENE 18:26:55 10° NNW
SL-08 R/B 4.3 18:19:39 10° N 18:25:51 71° ENE 18:31:57 10° SSE
Cosmos 2297 4.0 18:21:15 10° NNW 18:26:54 66° WSW 18:32:32 10° SSE
Cosmos 1470 Rocket 3.4 18:22:41 10° N 18:27:03 90° E 18:27:22 77° S
Cosmos 1933 3.8 18:24:25 10° SSW 18:28:24 60° WNW 18:29:42 39° NNW
Cosmos 1943 Rocket 2.0 18:24:23 10° NNW 18:29:59 83° ENE 18:31:41 46° SE
Meteor 1-14 Rocket 4.2 18:24:20 10° N 18:30:17 79° ENE 18:36:17 10° SSE
Cosmos 44 3.7 18:25:04 10° NW 18:30:19 71° SW 18:32:40 34° SSE
COSMO-SKYMED 1 3.0 18:29:20 28° N 18:31:30 61° WNW 18:35:47 10° SSW
Okean-O 2.9 18:30:06 10° S 18:34:30 65° WSW 18:38:56 10° NNW
PSLV R/B 4.3 18:36:53 61° SW 18:36:53 61° SW 18:40:20 10° SSW
CZ-2C R/B 3.2 18:31:33 10° S 18:36:41 70° WSW 18:41:36 10° NNW
SJ-11-01 4.4 18:37:47 62° N 18:37:47 62° N 18:41:46 10° NNW
Cosmos 1867 3.5 18:31:43 10° SW 18:37:11 88° NW 18:37:58 67° NE
USA 215 3.2 18:35:13 48° ENE 18:37:19 89° NNW 18:43:53 10° WSW
SL-16 R/B 2.0 18:32:05 10° SSW 18:37:45 85° ESE 18:38:47 61° NE
ARGOS 3.2 18:38:31 58° NNE 18:38:31 58° NNE 18:43:09 10° N
Meteor 1-26 Rocket 4.3 18:37:02 10° SSW 18:43:03 84° W 18:48:00 16° N
Helios 1A Rocket 3.8 18:43:48 24° SSW 18:45:54 47° W 18:49:49 10° NNW
ISS -1.4 18:44:58 10° W 18:46:31 25° W 18:46:31 25° W
CZ-4B R/B 4.1 18:50:24 15° NW 18:50:46 15° WNW 18:52:39 10° WSW
Cosmos 2333 Rocket 4.5 18:51:20 10° WNW 18:55:02 17° NNW 18:58:13 12° N
Cosmos 1151 Rocket 4.3 18:55:48 10° SW 18:59:49 38° WNW 19:00:18 37° WNW
Lacrosse 5 rocket 4.0 19:03:31 10° SW 19:03:47 12° SW 19:03:47 12° SW
NOSS 3-3 (A) 4.5 19:04:36 10° NW 19:11:31 61° NNE 19:11:31 61° NNE
USA 267 4.1 19:09:08 30° S 19:11:49 44° SW 19:18:00 10° WNW
CZ-4 R/B 3.5 19:14:25 24° WSW 19:14:48 24° W 19:18:06 10° NW
H-2A R/B 3.5 19:33:04 29° SW 19:34:42 35° W 19:39:29 10° NNW
Cosmos 2237 Rocket 4.2 19:30:29 10° W 19:34:48 22° NW 19:36:16 20° NNW
Cosmos 2369 Rocket 3.5 19:40:04 10° NW 19:43:59 37° WNW 19:43:59 37° WNW
Cosmos 1943 Rocket 4.5 20:09:23 10° WNW 20:13:01 18° W 20:13:17 18° WSW
SL-16 R/B 4.4 20:18:04 10° W 20:20:43 20° WNW 20:20:43 20° WNW
